Preview of NWS' New Version of Forecast
This preview is not operational and should not be used for support decisions.

Regional Weather Roundup (RWR)

Issued by National Weather Service (NWS)

                            
000
ASUS42 KTBW 230017
RWRFL 
FLORIDA REGIONAL WEATHER ROUNDUP
NATIONAL WEATHER SERVICE TAMPA BAY RUSKIN FL
700 PM EST FRI FEB 22 2019

NOTE: "FAIR" INDICATES FEW OR NO CLOUDS BELOW 12,000 FEET WITH NO
SIGNIFICANT WEATHER AND/OR OBSTRUCTIONS TO VISIBILITY.

FLZ001>010-012>015-112-114-115-230100-
PANHANDLE FLORIDA
  
CITY           SKY/WX    TMP DP  RH WIND       PRES   REMARKS
PENSACOLA      FOG       68  66  93 E13       30.08S VSB 1/4          
PENSACOLA NAS  FOG       68  68 100 E10       30.07F VSB 1/2          
MILTON NAS     CLOUDY    69  69 100 SE9       30.08                   
CRESTVIEW      CLOUDY    72  68  87 VRB3      30.11S                  
DUKE FIELD     CLOUDY    71  71 100 SE8       30.10R                  
VALPARAISO     CLOUDY    68  68 100 SE8       30.10S                  
MARY ESTHER    FOG       67  65  96 E5        30.09R VSB 3/4          
PANAMA CITY    MOCLDY    71  68  90 SE9       30.11S                  
TYNDALL AFB    CLOUDY    71  68  90 SE13      30.11F                  
APALACHICOLA   CLOUDY    68  66  93 E6        30.13R                  

STATION/POSITION SKY/WX   TEMP    WIND        PRES    WAVE   SWELL
                          AIR SEA DIR/SP/G            HT/PER HT/PER
                          (F)     (DEG/KT/KT) (MB)    (FT/S) (FT/S)
30.1N   87.6W              67     100/ 10/ 12 1018.2F   3/ 6   2/ 6
29.2N   88.2W                     130/ 12/ 14 1017.7F   3/ 7   2/ 7
PANAMA CITY BEAC           67 66  120/ 13/ 15 1019.9S
TOWER C                    67     110/ 11/ 12 1020.5R

$$
FLZ011-016>038-118-127-128-134-139-239-230100-
NORTH FLORIDA
  
CITY           SKY/WX    TMP DP  RH WIND       PRES   REMARKS
MARIANNA       FAIR      75  67  76 S5        30.11R                  
TALLAHASSEE    MOCLDY    73  68  84 S5        30.14R                  
PERRY          MOCLDY    73  69  87 SW5       30.16R                  
LIVE OAK       MOCLDY    73  68  83 CALM      30.14R                  
CROSS CITY     CLOUDY    75  66  72 W6        30.15R                  
LAKE CITY      CLOUDY    77  63  61 CALM      30.15R                  
GAINESVILLE    CLOUDY    78  67  68 SE3       30.16R                  
WILLISTON        N/A    N/A N/A N/A MISG        N/A                   
PALATKA        CLOUDY    77  68  73 E6        30.16R                  
MAYPORT NAS    CLOUDY    72  67  84 S8        30.16R                  
JACKSONVILLE   MOCLDY    77  65  66 SE8       30.15R                  
JAX NAS        MOCLDY    76  65  68 E7        30.16R                  
JAX CECIL      MOCLDY    79  68  69 VRB5      30.15R                  
FERNANDINA BEA CLOUDY    69  66  89 SE7       30.16S                  
ST AUGUSTINE   MOCLDY    71  67  87 CALM      30.18R                  
PALM COAST     PTCLDY    72  68  88 E6        30.16R                  

STATION/POSITION SKY/WX   TEMP    WIND        PRES    WAVE   SWELL
                          AIR SEA DIR/SP/G            HT/PER HT/PER
                          (F)     (DEG/KT/KT) (MB)    (FT/S) (FT/S)
SHELL POINT      NOT AVBL
KEATON BEACH               73     190/  4/  5 1021.1R
CEDAR KEY                  73     300/  3/  4 1020.9R
FERNANDINA                    68  130/  5/  9 1022.1R
30.7N   81.3W                 64                N/A     2/ 7
MAYPORT                       65  160/  4/  6 1021.5R
31.4N   80.9W              64 61   90/ 10/ 12 1021.6R   3/ 7   2/ 7
ST AUGUSTINE               68 62  150/  6/  6 1021.6R

$$
FLZ040-043>046-052-053-057-058-063-144-230100-
INTERIOR CENTRAL FLORIDA
  
CITY           SKY/WX    TMP DP  RH WIND       PRES   REMARKS
OCALA          MOCLDY    79  66  64 N3        30.15R                  
LEESBURG       FAIR      77  63  61 CALM      30.14R                  
SANFORD        MOCLDY    77  69  76 SE8       30.15R                  
ORLANDO EXEC   CLOUDY    79  66  64 E12       30.15R                  
ORLANDO INTL   MOCLDY    78  67  68 E9G20     30.15R                  
KISSIMMEE      FAIR      79  68  69 E9        30.15R                  
WINTER HAVEN   FAIR      82  60  47 CALM      30.14R                  
LAKELAND       CLEAR     81  61  50 CALM      30.13R                  
BARTOW         DRIZZLE   77  63  61 CALM      30.12S                  
SEBRING        FAIR      79  68  68 SE6       30.13R                  
OKEECHOBEE     FAIR      79  70  73 SE8       30.13R                  

$$
FLZ041-047-054-059-064-141-147-230100-
EAST CENTRAL FLORIDA
  
CITY           SKY/WX    TMP DP  RH WIND       PRES   REMARKS
ORMOND BEACH   PTCLDY    73  73 100 SE5       30.16R                  
DAYTONA BEACH  FAIR      74  71  91 SE3       30.16R                  
DELAND         MOCLDY    75  66  73 E7        30.15R                  
NEW SMYRNA BEA MOCLDY    73  68  83 SE8       30.17R                  
JFK SPACE CTR  FAIR      72 N/A N/A SE5       30.16R                  
TITUSVILLE     PTCLDY    79  72  78 SE6       30.17R                  
CAPE CANAVERAL FAIR      73  70  93 SE7       30.15R                  
PATRICK AFB    FAIR      71  71 100 E8        30.15R                  
MELBOURNE      FAIR      75  69  81 E8        30.15R                  
VERO BEACH     FAIR      75  71  87 E12       30.15R                  
FT PIERCE      FAIR      76  70  82 E12       30.14R                  
STUART         PTCLDY    77  72  83 SE8       30.16R                  

STATION/POSITION SKY/WX   TEMP    WIND        PRES    WAVE   SWELL
                          AIR SEA DIR/SP/G            HT/PER HT/PER
                          (F)     (DEG/KT/KT) (MB)    (FT/S) (FT/S)
28.5N   80.2W              73     120/  6/  6 1021.7R   3/ 8   3/ 8
28.9N   78.5W              75 76   90/  8/ 12 1022.7R   4/ 7   3/ 7
TRIDENT PIER                  70  100/  6/  9 1022.3R
28.4N   80.5W                 69                N/A     2/ 8

$$
FLZ050-056-061-142-242-148-248-149-249-151-251-155-255-
160-260-230100-
WEST CENTRAL FLORIDA
  
CITY           SKY/WX    TMP DP  RH WIND       PRES   REMARKS
CRYSTAL RIVER  MOCLDY    73  68  83 CALM      30.15R                  
INVERNESS      MOCLDY    77  72  83 CALM      30.14R                  
BROOKSVILLE    CLOUDY    76  67  73 NW6       30.15R                  
CLEARWATER AIR MOCLDY    73  68  83 SW3       30.14R                  
ST PETE CLEARW CLOUDY    76  66  71 W6        30.13R                  
TAMPA INTL     MOCLDY    78  68  71 W8        30.14R                  
TAMPA EXEC     CLOUDY    77  68  73 NW6       30.14R                  
PLANT CITY     FAIR      77  63  61 CALM      30.14S                  
PETER O KNIGHT CLOUDY    79  70  73 W6        30.14R                  
ST PETERSBURG  FAIR      77  68  73 W8        30.12R                  
SARASOTA       FAIR      76  70  82 W3        30.11R                  
VENICE         FAIR      75  72  88 CALM      30.13R                  

STATION/POSITION SKY/WX   TEMP    WIND        PRES    WAVE   SWELL
                          AIR SEA DIR/SP/G            HT/PER HT/PER
                          (F)     (DEG/KT/KT) (MB)    (FT/S) (FT/S)
27.3N   84.2W                 73                N/A     3/ 5
CLEARWATER BEACH           73 73     CALM     1020.6R
MIDDLE TAMPA BAY                  320/  6/  7 1020.4R
VENICE                     74 72  210/  2/  2 1020.0R

$$
FLZ066-069-070-075>078-162-262-165-265-230100-
SOUTHWEST FLORIDA AND KEYS
  
CITY           SKY/WX    TMP DP  RH WIND       PRES   REMARKS
PUNTA GORDA    FAIR      77  68  73 W6        30.13R                  
FT MYERS       FAIR      78  63  59 SW7       30.11R                  
SOUTHWEST INTL MOCLDY    77  64  64 W6        30.12R                  
NAPLES         FAIR      78  70  76 S7        30.11R                  
MARCO ISLAND   FAIR     N/A N/A N/A S3        30.12R                  
IMMOKALEE      MOCLDY    79  66  65 SE5       30.09R                  
MARATHON       FAIR      81  72  74 E7        30.11S                  
KEY WEST NAS   FAIR      79  72  79 E17       30.09F                  
KEY WEST INTL  FAIR      80  72  76 E14       30.10S                  

STATION/POSITION SKY/WX   TEMP    WIND        PRES    WAVE   SWELL
                          AIR SEA DIR/SP/G            HT/PER HT/PER
                          (F)     (DEG/KT/KT) (MB)    (FT/S) (FT/S)
NAPLES                        76  160/  7/  8 1019.6R
26.0N   85.6W              79 80  120/ 10/ 14 1018.7R   4/ 6   3/ 6
DRY TORTUGAS               77     100/ 10/ 11 1019.1R
SAND KEY                   78                 1019.0R
SOMBRERO KEY               78                 1018.9R
LONG KEY                   78 80  100/ 12/ 14 1019.6R
MOLASSES REEF              78 79  110/ 11/ 12 1020.3R

$$
FLZ067-068-071>074-168-172>174-230100-
SOUTHEAST FLORIDA 
  
CITY           SKY/WX    TMP DP  RH WIND       PRES   REMARKS
W PALM BEACH   FAIR      78  72  81 SE12      30.14S                  
BOCA RATON     PTCLDY    79  73  83 SE9       30.14R                  
FT LAUDER-EXEC FAIR      79  75  87 SE9       30.13R                  
FT LAUDERDALE  FAIR      79  76  90 SE10      30.13R                  
POMPANO BEACH  FAIR      79  73  82 SE10      30.14R                  
PEMBROKE PINES FAIR      78  71  79 SE12      30.14S                  
OPA LOCKA      FAIR      78  72  81 E10       30.14R                  
MIAMI          FAIR      78  74  87 E13       30.13S                  
WEST KENDALL   CLOUDY    79  71  76 SE8       30.13R                  
HOMESTEAD      FAIR      77  72  84 E7        30.12S                  

STATION/POSITION SKY/WX   TEMP    WIND        PRES    WAVE   SWELL
                          AIR SEA DIR/SP/G            HT/PER HT/PER
                          (F)     (DEG/KT/KT) (MB)    (FT/S) (FT/S)
PORT EVERGLADES            79     120/  4/  8 1020.3R
VIRGINIA KEY               78 80   90/  5/  8 1019.7S
LAKE WORTH                    78  140/ 14/ 16 1021.6R
FOWEY ROCKS                78 78   80/ 11/ 12 1021.0R
SETTLEMENT POINT           76     130/  8/ 10 1021.4R

$$